Regional Weather Roundup
Issued by NWS

Home | Current Version | Previous Version | Graphics & Text | Print | Product List | Glossary On
Versions: 1 2 3 4 5 6 7 8 9 10 11 12 13 14 15 16 17 18 19 20 21 22 23 24 25 26 27 28 29 30 31 32 33 34 35 36 37 38 39 40 41 42 43 44 45 46 47 48 49 50
000
ASUS43 KBIS 221810
RWRND

NORTH DAKOTA REGIONAL WEATHER ROUNDUP
NATIONAL WEATHER SERVICE BISMARCK ND
1200 PM CST WED NOV 22 2017

NOTE: "FAIR" INDICATES FEW OR NO CLOUDS BELOW 12,000 FEET WITH NO
SIGNIFICANT WEATHER AND/OR OBSTRUCTIONS TO VISIBILITY.


NDZ001>003-009>011-017-221900-
NORTHWEST NORTH DAKOTA

CITY           SKY/WX    TMP DP  RH WIND       PRES   REMARKS
WILLISTON      CLOUDY    43  31  62 S5        29.85R
6HR MIN TEMP:  24; 6HR MAX TEMP:  44; 6HR PCP: TRACE;

MINOT          SUNNY     38  22  52 N3        29.80F
MINOT AFB      SUNNY     33  20  59 CALM      29.80F
$$

NDZ018>021-031>035-040>046-221900-
SOUTHWEST NORTH DAKOTA

CITY           SKY/WX    TMP DP  RH WIND       PRES   REMARKS
BISMARCK       CLOUDY    43  22  43 S8        29.87F
6HR MIN TEMP:  17; 6HR MAX TEMP:  43; 6HR PCP: TRACE;

DICKINSON      CLOUDY    60  38  43 W30G39    29.84S
GARRISON         N/A     42  28  57 W8        29.80F
6HR MIN TEMP:  20; 6HR MAX TEMP:  42;

HETTINGER ARPT CLOUDY    64  37  36 W30G36    29.91F
$$

NDZ004>008-012>016-024-026-027-054-221900-
NORTHEAST NORTH DAKOTA

CITY           SKY/WX    TMP DP  RH WIND       PRES   REMARKS
GRAND FORKS    CLOUDY    22  15  75 S16       29.98F WCI   8
GRND FRKS AFB  MIX PCPN  23  14  68 S16       29.95F WCI  10
DEVILS LAKE    CLOUDY    24  16  71 S10       29.88F WCI  14
$$

NDZ022-023-025-028>030-036>039-047>053-221900-
SOUTHEAST NORTH DAKOTA

CITY           SKY/WX    TMP DP  RH WIND       PRES   REMARKS
FARGO          CLOUDY    27  13  55 S14       30.01F WCI  16
6HR MIN TEMP:  11; 6HR MAX TEMP:  27;

JAMESTOWN      CLOUDY    28  13  53 S21G26    29.87F WCI  15
$$




USA.gov is the U.S. government's official web portal to all federal, state and local government web resources and services.